TimeEST,TemperatureF,Dew PointF,Humidity,Sea Level PressureIn,VisibilityMPH,Wind Direction,Wind SpeedMPH,Gust SpeedMPH,PrecipitationIn,Events,Conditions,WindDirDegrees,DateUTC
12:32 AM,21.2,19.4,93,29.90,5.0,Calm,Calm,-,N/A,,Overcast,0,2013-02-05 05:32:00
12:54 AM,19.9,18.0,92,29.94,5.0,NNW,3.5,-,N/A,,Overcast,340,2013-02-05 05:54:00
1:54 AM,19.9,19.0,96,29.95,3.0,NW,3.5,-,N/A,,Overcast,310,2013-02-05 06:54:00
2:54 AM,15.1,15.1,100,29.95,1.2,Calm,Calm,-,N/A,,Mostly Cloudy,0,2013-02-05 07:54:00
3:15 AM,12.2,12.2,100,29.92,0.5,Calm,Calm,-,N/A,Fog,Light Freezing Fog,0,2013-02-05 08:15:00
3:21 AM,14.0,12.2,93,29.91,0.2,Calm,Calm,-,N/A,Fog,Light Freezing Fog,0,2013-02-05 08:21:00
3:26 AM,12.2,10.4,92,29.91,0.1,Calm,Calm,-,N/A,Fog,Light Freezing Fog,0,2013-02-05 08:26:00
3:54 AM,12.0,10.9,95,29.96,0.1,Calm,Calm,-,N/A,Fog,Light Freezing Fog,0,2013-02-05 08:54:00
4:29 AM,14.0,12.2,93,29.91,0.1,Calm,Calm,-,N/A,Fog,Light Freezing Fog,0,2013-02-05 09:29:00
4:54 AM,15.1,12.9,91,29.94,0.8,Calm,Calm,-,N/A,,Overcast,0,2013-02-05 09:54:00
5:09 AM,15.8,12.2,86,29.91,1.0,Calm,Calm,-,N/A,,Overcast,0,2013-02-05 10:09:00
5:54 AM,16.0,14.0,92,29.94,1.5,Calm,Calm,-,N/A,,Overcast,0,2013-02-05 10:54:00
6:54 AM,12.9,10.9,92,29.96,1.5,Calm,Calm,-,N/A,,Mostly Cloudy,0,2013-02-05 11:54:00
7:25 AM,10.4,8.6,92,29.91,0.5,Calm,Calm,-,N/A,Fog,Light Freezing Fog,0,2013-02-05 12:25:00
7:31 AM,10.4,8.6,92,29.91,0.1,Calm,Calm,-,N/A,Fog,Light Freezing Fog,0,2013-02-05 12:31:00
7:54 AM,8.1,8.1,100,29.97,0.1,SW,4.6,-,N/A,Fog,Light Freezing Fog,230,2013-02-05 12:54:00
8:54 AM,10.9,10.9,100,29.97,0.1,Calm,Calm,-,N/A,Fog,Light Freezing Fog,0,2013-02-05 13:54:00
9:43 AM,15.8,15.8,100,29.93,0.2,SSW,4.6,-,N/A,Fog,Light Freezing Fog,210,2013-02-05 14:43:00
9:54 AM,16.0,15.1,96,29.97,0.2,SW,6.9,-,N/A,Fog,Light Freezing Fog,220,2013-02-05 14:54:00
10:10 AM,17.6,17.6,100,29.93,0.5,SSW,5.8,-,N/A,Fog,Light Freezing Fog,210,2013-02-05 15:10:00
10:26 AM,19.4,17.6,93,29.93,1.0,SSW,3.5,-,N/A,,Mostly Cloudy,210,2013-02-05 15:26:00
10:49 AM,21.2,19.4,93,29.92,1.8,SSW,5.8,-,N/A,,Mostly Cloudy,210,2013-02-05 15:49:00
10:54 AM,21.0,19.0,92,29.96,1.8,SSW,6.9,-,N/A,,Mostly Cloudy,210,2013-02-05 15:54:00
11:10 AM,21.2,19.4,93,29.92,2.5,SSW,8.1,-,N/A,,Mostly Cloudy,200,2013-02-05 16:10:00
11:32 AM,23.0,19.4,86,29.90,3.0,SSW,12.7,-,N/A,,Mostly Cloudy,200,2013-02-05 16:32:00
11:54 AM,25.0,21.0,85,29.94,4.0,SSW,9.2,-,N/A,,Mostly Cloudy,200,2013-02-05 16:54:00
12:54 PM,25.0,21.0,85,29.90,8.0,South,8.1,-,N/A,,Mostly Cloudy,180,2013-02-05 17:54:00
1:54 PM,28.0,21.0,75,29.88,9.0,SSW,10.4,-,N/A,,Mostly Cloudy,200,2013-02-05 18:54:00
2:54 PM,28.9,21.9,75,29.86,9.0,SSW,11.5,-,N/A,,Overcast,200,2013-02-05 19:54:00
3:54 PM,30.0,21.9,72,29.86,10.0,SSW,8.1,-,N/A,,Overcast,210,2013-02-05 20:54:00
4:54 PM,30.9,23.0,72,29.87,8.0,WSW,10.4,-,0.00,Snow,Light Snow,240,2013-02-05 21:54:00
5:02 PM,30.2,23.0,75,29.84,2.0,WSW,11.5,-,0.00,Snow,Light Snow,250,2013-02-05 22:02:00
5:07 PM,30.2,24.8,80,29.85,1.5,WSW,10.4,-,0.00,Snow,Light Snow,250,2013-02-05 22:07:00
5:16 PM,30.2,24.8,80,29.85,0.8,WSW,11.5,-,0.00,Snow,Light Snow,250,2013-02-05 22:16:00
5:30 PM,28.4,26.6,93,29.86,1.0,WSW,8.1,-,0.01,Snow,Light Snow,250,2013-02-05 22:30:00
5:36 PM,28.4,26.6,93,29.86,0.8,WSW,6.9,-,0.01,Snow,Light Snow,250,2013-02-05 22:36:00
5:43 PM,28.4,28.4,100,29.86,1.0,West,6.9,-,0.01,Snow,Light Snow,260,2013-02-05 22:43:00
5:54 PM,28.9,28.0,96,29.90,1.5,West,4.6,-,0.02,Snow,Light Snow,270,2013-02-05 22:54:00
6:00 PM,28.4,28.4,100,29.87,0.8,West,6.9,-,0.00,Snow,Light Snow,270,2013-02-05 23:00:00
6:09 PM,28.4,28.4,100,29.87,1.0,West,6.9,-,0.00,Snow,Light Snow,260,2013-02-05 23:09:00
6:16 PM,28.4,28.4,100,29.87,1.5,West,5.8,-,0.01,Snow,Light Snow,260,2013-02-05 23:16:00
6:28 PM,28.4,28.4,100,29.87,3.0,WSW,6.9,-,0.01,Snow,Light Snow,250,2013-02-05 23:28:00
6:43 PM,28.4,28.4,100,29.87,4.0,WSW,5.8,-,0.01,Snow,Light Snow,250,2013-02-05 23:43:00
6:54 PM,28.9,28.0,96,29.91,5.0,WSW,9.2,-,0.01,Snow,Light Snow,240,2013-02-05 23:54:00
7:21 PM,30.2,28.4,93,29.89,5.0,West,10.4,-,0.00,Snow,Light Snow,260,2013-02-06 00:21:00
7:54 PM,30.9,28.0,89,29.93,7.0,West,12.7,-,0.00,,Overcast,260,2013-02-06 00:54:00
8:54 PM,30.9,28.0,89,29.96,7.0,West,12.7,-,N/A,,Overcast,280,2013-02-06 01:54:00
9:54 PM,30.9,27.0,85,29.98,6.0,WNW,12.7,20.7,N/A,,Overcast,290,2013-02-06 02:54:00
10:54 PM,30.0,26.1,85,30.00,6.0,WNW,11.5,-,N/A,,Overcast,290,2013-02-06 03:54:00
11:25 PM,30.2,26.6,86,29.99,5.0,WNW,9.2,-,N/A,,Overcast,300,2013-02-06 04:25:00
11:54 PM,30.0,26.1,85,30.03,5.0,WNW,10.4,17.3,N/A,,Overcast,290,2013-02-06 04:54:00